This demonstration page uses our WeatherBlox Daily Observations layout. Learn more.

Left ArrowRight Arrow

39.12711, -84.51439

Hourly Observations for May 22, 2022

Temp ( °F °C ) Dew Point ( °F °C ) Humidity (%) Winds ( mph kmh ) Pressure ( in mb ) Visibility ( mi km ) Precip ( " mm )
12:14 am 00:14 Mostly Cloudy 66 18.9 66 18.9 100 100 Calm 30.06 1018 8 13 0.00 0.00
12:34 am 00:34 Cloudy with Nearby Thunderstorms 66 18.9 66 18.9 100 100 Calm 30.07 1018 7 11 0.00 0.00
12:49 am 00:49 Cloudy with Light Rain 66 19 66 19 100 100 SSE 3 6 30.06 1018 6 10 0.01 0.25
12:53 am 00:53 Cloudy with Light Rain 66 18.9 65 18.3 96 96 VRB 6 9 30.05 1018 8 13 0.01 0.25
1:53 am 01:53 Mostly Cloudy 66 18.9 65 18.3 96 96 Calm 30.03 1017 8 13 0.00 0.00
2:53 am 02:53 Mostly Clear 65 18.3 65 18.3 100 100 Calm 30.01 1016 7 11 0.00 0.00
3:53 am 03:53 Clear with Mist and Fog 64 17.8 64 17.8 100 100 S 3 6 30.03 1017 6 10 0.00 0.00
4:53 am 04:53 Partly Cloudy with Mist and Fog 65 18.3 65 18.3 100 100 SW 6 9 30.03 1017 6 10 0.01 0.25
5:53 am 05:53 Clear with Mist and Fog 65 18.3 65 18.3 100 100 SSW 5 7 30.04 1017 6 10 0.00 0.00
6:53 am 06:53 Mostly Cloudy with Mist and Fog 67 19.4 66 18.9 97 97 W 7 11 30.06 1018 6 10 0.00 0.00
7:53 am 07:53 Mostly Cloudy with Light Rain 68 20 66 18.9 93 93 VRB 5 7 30.09 1019 6 10 0.01 0.25
8:53 am 08:53 Cloudy with Light Rain 68 20 66 18.9 93 93 NNW 3 6 30.11 1020 4 6 0.02 0.51
9:53 am 09:53 Cloudy 66 18.9 63 17.2 90 90 N 13 20 30.14 1021 10 16 0.01 0.25
10:53 am 10:53 Cloudy 65 18.3 60 15.6 84 84 NNW 9 15 30.17 1022 9 14 0.01 0.25
11:53 am 11:53 Cloudy 64 17.8 59 15 84 84 NW 7 11 30.19 1022 10 16 0.00 0.00
12:53 pm 12:53 Cloudy 66 18.9 58 14.4 75 75 N 7 11 30.21 1023 10 16 0.00 0.00
1:53 pm 13:53 Cloudy 65 18.3 56 13.3 73 73 NNW 9 15 30.23 1024 10 16 0.00 0.00
2:53 pm 14:53 Cloudy 66 18.9 55 12.8 68 68 NNW 9 15 30.23 1024 10 16 0.00 0.00
3:53 pm 15:53 Mostly Cloudy 69 20.6 56 13.3 63 63 VRB 3 6 30.23 1024 10 16 0.00 0.00
4:53 pm 16:53 Cloudy 69 20.6 55 12.8 61 61 VRB 5 7 30.23 1024 10 16 0.00 0.00
5:53 pm 17:53 Mostly Cloudy 70 21.1 54 12.2 57 57 N 8 13 30.23 1024 10 16 0.00 0.00
6:53 pm 18:53 Mostly Cloudy 68 20 53 11.7 59 59 NNW 7 11 30.23 1024 10 16 0.00 0.00
7:53 pm 19:53 Sunny 65 18.3 50 10 59 59 NNW 8 13 30.22 1024 10 16 0.00 0.00
8:53 pm 20:53 Clear 64 17.8 50 10 60 60 Calm 30.25 1025 10 16 0.00 0.00
9:53 pm 21:53 Clear 63 17.2 49 9.4 60 60 N 8 13 30.27 1025 10 16 0.00 0.00
10:53 pm 22:53 Partly Cloudy 61 16.1 49 9.4 65 65 NNE 3 6 30.29 1026 10 16 0.00 0.00
11:53 pm 23:53 Partly Cloudy 61 16.1 48 8.9 63 63 NNE 8 13 30.30 1026 10 16 0.00 0.00

Powered by AerisWeather